Tracking 17752 objects as of 2-July-2016
HD Live streaming from Space Station
objects crossing your sky now

FENGYUN 2B AKM

Track FENGYUN 2B AKM now!


NORAD ID: 26460
Int'l Code: 2000-032C
Perigee: 35,743.2 km
Apogee: 35,925.0 km
Inclination: 12.0 °
Period: 1,438.2 minutes
Semi major axis: 42205 km
RCS: 7.9432 m2 (large)
Launch date: June 25, 2000
Source: People's Republic of China (PRC)
Launch site: Xichang Space Center, China (XSC)

Note: This is a ROCKET BODY
Your satellite tracking list
Your tracking list is empty





NASA's NSSDC Master Catalog

Two Line Element Set (TLE):
1 26460U 00032C   16182.89103959 -.00000109 +00000-0 +00000-0 0  9996
2 26460 012.0126 036.6613 0021537 302.2765 338.2623 01.00127995085734
Source of the keplerian elements: AFSPC

N2YO: 880